Regional Weather Roundup
Issued by NWS

Home | Current Version | Previous Version | Text Only | Print | Product List | Glossary Off
Versions: 1 2 3 4 5 6 7 8 9 10 11 12 13 14 15 16 17 18 19 20 21 22 23 24 25 26 27 28 29 30 31 32 33 34 35 36 37 38 39 40 41 42 43 44 45 46 47 48 49 50

000
ASUS43 KLOT 302309
RWRIL

ILLINOIS REGIONAL WEATHER ROUNDUP
NATIONAL WEATHER SERVICE CHICAGO/ROMEOVILLE IL
600 PM CDT SAT JUL 30 2016

NOTE: "FAIR" INDICATES FEW OR NO CLOUDS BELOW 12,000 FEET WITH NO
SIGNIFICANT WEATHER AND/OR OBSTRUCTIONS TO VISIBILITY.

* THESE STATIONS ARE NOT UNDER NWS QUALITY CONTROL. THEY ALSO MAY NOT
  REPORT WEATHER SUCH AS PRECIPITATION OR FOG.

ILZ001-002-007-009-015-016-024-310000-
NORTHWEST ILLINOIS

CITY           SKY/WX    TMP DP  RH WIND       PRES   REMARKS
MOLINE         PTSUNNY   81  66  60 NE7       29.96S HX  83
STERLING*      MOSUNNY   78  68  71 E6        29.97S HX  80
SAVANNA*       MOSUNNY   81  65  59 NE10      29.97S HX  83
$$

ILZ003-004-008-010-011-017-018-310000-
NORTH CENTRAL ILLINOIS

CITY           SKY/WX    TMP DP  RH WIND       PRES   REMARKS
ROCKFORD       MOSUNNY   80  59  48 NE13      29.99S HX  81
FREEPORT*      SUNNY     77  62  60 NE5       30.01S
ROCHELLE*      MOSUNNY   77  65  65 NE6       29.99S
DE KALB*       SUNNY     74  66  75 NE7       29.99S
$$

ILZ005-006-012>014-019>023-310000-
NORTHEAST ILLINOIS

CITY           SKY/WX    TMP DP  RH WIND       PRES   REMARKS
CHICAGO-OHARE  PTSUNNY   75  64  68 NE12      29.98S
CHICAGO-MIDWAY PTSUNNY   75  64  68 NE14      29.97S
AURORA         MOSUNNY   79  65  62 NE8       29.97S HX  81
LANSING*       PTSUNNY   74  64  70 NE10      29.97F
JOLIET*        SUNNY     80  67  66 NE8       29.96S HX  82
WAUKEGAN       CLOUDY    73  64  73 NE12      30.00S
DUPAGE AIRPORT MOSUNNY   77  64  64 NE12      29.98R
KANKAKEE*      CLOUDY    74  68  83 CALM      29.96S
WHEELING       PTSUNNY   73  63  70 NE13      30.00S
MORRIS*        PTSUNNY   77  67  71 CALM      29.95S
ROMEOVILLE*    MOSUNNY   77  64  63 NE10      29.97S
NORTHERLY ISL    N/A     73  64  73 N9          N/A
$$

LMZ740>746-310000-
SOUTHERN LAKE MICHIGAN

STATION/POSITION SKY/WX   TEMP    WIND        PRES    VSBY  WAVE
                          AIR SEA DIR/SP/G                  HT/PER
                          (F)     (DEG/KT/KT) (MB)    (MI)  (FT/S)
SOUTHERN BUOY              72 74   30/ 12/ 14 1015.0F         1/ 4
WILMETTE HARBOR            72 71   60/ 10/ 14   N/A           2/ 4
HARRISON CRIB              72      20/ 16/ 17   N/A
BURNHAM HARBOR             72     340/  8/ 13   N/A
CALUMET HARBOR             72                   N/A
BURNS HARBOR               70      30/ 12/ 14 1015.6S
MICHIGAN CITY              70     360/ 12/ 13   N/A
MICHIGAN CITY 6N           72 73   10/ 10/ 14   N/A           3/ 4
ST. JOSEPH                 71 71   10/ 14/ 16 1014.2F         3/ 3
$$

ILZ025>027-034>036-040-047-049-050-058-095>099-310000-
WEST-CENTRAL ILLINOIS

CITY           SKY/WX    TMP DP  RH WIND       PRES   REMARKS
QUINCY         SUNNY     80  68  66 NW6       29.95F HX  83
GALESBURG*     MOSUNNY   80  66  63 W5        29.96F HX  82
MACOMB*        PTSUNNY   80  67  64 NW5       29.98S HX  82
JACKSONVILLE*  SUNNY     81  67  62 W5        29.95F HX  83
PITTSFIELD*    SUNNY     80  66  61 W5        29.97F HX  82
$$

ILZ028>032-037-038-041>044-048-051>054-059>061-310000-
CENTRAL ILLINOIS

CITY           SKY/WX    TMP DP  RH WIND       PRES   REMARKS
PONTIAC        SUNNY     79  72  78 N8        29.97R HX  82
BLOOMINGTON    PTSUNNY   75  70  84 NE6       29.97S
DECATUR        PTSUNNY   82  66  58 VRB6      29.95F HX  84
PEORIA         MOSUNNY   78  69  73 NE13      29.95S HX  80
LACON*         MOSUNNY   75  68  77 E3        29.95S
LINCOLN*       MOSUNNY   81  69  67 NW3       29.95S HX  84
SPRINGFIELD    MOSUNNY   82  67  60 NW5       29.95F HX  84
TAYLORVILLE    SUNNY     79  66  64 MISG      29.96F HX  81
$$

ILZ033-039-045-046-055>057-062-063-310000-
EAST-CENTRAL ILLINOIS

CITY           SKY/WX    TMP DP  RH WIND       PRES   REMARKS
CHAMPAIGN      MOSUNNY   79  68  69 W6        29.96R HX  81
MATTOON        PTSUNNY   80  65  59 W9        29.95S HX  82
PARIS*         MOSUNNY   79  67  67 W3        29.96S HX  81
$$

ILZ079-100>102-310000-
SOUTHWEST ILLINOIS

CITY           SKY/WX    TMP DP  RH WIND       PRES   REMARKS
ALTON          MOSUNNY   81  68  65 NW12      29.95F HX  83
BELLEVILLE     SUNNY     84  70  62 N3        29.94F HX  89
CAHOKIA*       CLOUDY    85  65  51 N5        29.95S HX  86
SPARTA*        PTSUNNY   84  66  53 W7        29.96S HX  86
$$

ILZ064>066-069>071-074>076-080>082-084>086-088>090-092>094-310000-
SOUTH-CENTRAL ILLINOIS

CITY           SKY/WX    TMP DP  RH WIND       PRES   REMARKS
CARBONDALE     SUNNY     86  67  52 NW7       29.95F HX  89
CAIRO*         MOSUNNY   83  74  74 E3        29.94F HX  89
EFFINGHAM*     SUNNY     82  68  63 W7        29.97F HX  84
MARION         MOSUNNY   86  68  54 W9        29.97  HX  89
MT. VERNON     MOSUNNY   82  64  54 CALM      29.96S HX  84
CENTRALIA*     MOSUNNY   83  70  66 NW8       29.95S HX  87
SALEM*         SUNNY     83  68  60 NW7       29.96S HX  85
METROPOLIS*    SUNNY     84  70  62 CALM      29.96F HX  88
$$

ILZ067-068-072-073-078-083-087-091-310000-
SOUTHEAST ILLINOIS

CITY           SKY/WX    TMP DP  RH WIND       PRES   REMARKS
LAWRENCEVILLE  SUNNY     85  66  53 NW9       29.95S HX  87
FLORA*         SUNNY     83  70  63 NW7       29.95F HX  87
FAIRFIELD*     SUNNY     82  67  60 CALM      29.94S HX  85
HARRISBURG*    SUNNY     84  68  57 W6        29.95F HX  87
ROBINSON*      MOSUNNY   81  68  64 NW8       29.96S HX  83
CARMI*         MOSUNNY   83  71  65 W6        29.94S HX  88
$$

ABBREVIATIONS USED IN REMARKS
   TC - TEMPERATURE IN CELSIUS
  WCI - WIND CHILL INDEX
   HX - HEAT INDEX
  VSB - VISIBILITY
$$





USA.gov is the U.S. government's official web portal to all federal, state and local government web resources and services.